{"data":{"norad_id":87280,"epoch":"2026-09-18T07:05:25.209024Z","epoch_age_seconds":205024,"freshness":"STALE","line1":"1 87280U          26261.29543066  .00000259  00000+0  52539-3 0  9999","line2":"2 87280  64.6142 263.8231 0117795 203.0454 156.5277 13.48794981571553","mean_motion":13.48794981,"eccentricity":0.0117795,"inclination_deg":64.6142,"raan_deg":263.8231,"arg_perigee_deg":203.0454,"mean_anomaly_deg":156.5277,"bstar":0.00052539,"rev_number":57155,"period_min":106.76196310668,"perigee_km":988.88114133575,"apogee_km":1164.5095364072,"semimajor_km":7454.8323388715,"source":"CELESTRAK","updated_at":"2026-09-20T09:00:32.453182Z"}}